Flag for Canada Weather past 2 weeks in Markham, Ontario, Canada

Now
66 °F

Overcast.


Feels Like: 66 °F
Forecast: 64 / 73 °F
Wind: 14 mph from Northwest

Location: Toronto Buttonville

Current Time: Jul 23, 2014 at 4:27:32 PM

Latest Report: Jul 23, 2014 at 4:00 PM


Visibility: 15 mi

Pressure: 29.96 "Hg

Humidity: 73%

Dew point: 57 °F

Location of MarkhamLocation

Historic Weather in Markham — Graph

°F

Markham temperature yesterday

Maximum temperature yesterday: 82 °F (at 12:00 PM)
Minimum temperature yesterday: 61 °F (at 5:00 AM)
Average temperature yesterday: 72 °F

Past Weeks' High & Low Weather Summary

 TemperatureHumidityPressure
High84 °F (Jul 12, 4:00 PM)100% (Jul 20, 4:00 AM)30.26 "Hg (Jul 20, 4:00 AM)
Low48 °F (Jul 17, 6:00 AM)33% (Jul 18, 8:00 PM)29.50 "Hg (Jul 8, 4:00 PM)
Average67 °F70%30.00 "Hg
* Reported Jul 8 3:00 PM — Jul 23 3:00 PM, Markham, Weather by CustomWeather, © 2014

Note: Actual official high and low records may vary slightly from our data, if they occured in-between our weather recording intervals... More about our weather records

Advertising

Markham weather history for previous 24 hours

 ConditionsComfort  
Time TempWeatherWind HumidityBarometerVisibility
3:00 PM
Jul 23
68 °FOvercast.15 mph73%29.95 "Hg15 mi
2:00 PM70 °FOvercast.14 mph69%29.94 "Hg15 mi
1:00 PM68 °FOvercast.8 mph73%29.93 "Hg15 mi
12:00 PM70 °FOvercast.14 mph69%29.91 "Hg15 mi
11:00 AM68 °FOvercast.13 mph78%29.91 "Hg15 mi
10:00 AM66 °FOvercast.17 mph78%29.89 "Hg15 mi
9:00 AM68 °FOvercast.16 mph78%29.88 "Hg15 mi
8:00 AM68 °FMostly cloudy.16 mph83%29.88 "Hg10 mi
7:00 AM72 °FMore clouds than sun.12 mph83%29.85 "Hg10 mi
6:00 AM75 °FOvercast.6 mph83%29.85 "Hg7 mi
5:00 AM75 °FPassing clouds.7 mph83%29.81 "Hg8 mi
2:00 AM73 °FPassing clouds.7 mph83%29.86 "Hg10 mi
1:00 AM75 °FOvercast.7 mph78%29.88 "Hg10 mi
12:00 AM75 °FThunderstorms. Overcast.3 mph78%29.92 "Hg10 mi
11:00 PM
Jul 22
79 °FThunderstorms. Overcast.5 mph61%29.95 "Hg15 mi
10:00 PM79 °FPassing clouds.8 mph61%29.91 "Hg15 mi
9:00 PM82 °FPassing clouds.12 mph55%29.90 "Hg15 mi
8:00 PM82 °FPassing clouds.6 mph55%29.93 "Hg15 mi
7:00 PM82 °FSunny.13 mph55%29.95 "Hg15 mi
Weather by CustomWeather, © 2014

See weather overviewHow to use our weather pages